| time (UTC) | temp F | wind direction | speed MPH | gust MPH | rain 1hr in | rain 24hr in | rain mn in | humidity % | barometer mb |
| 20260903211635 | 83 | 40 | 3.0 | 7.0 | 0.00 | 0.03 | 0.00 | 83 | 1001.8 |
| 20260903210634 | 83 | 113 | 4.0 | 7.0 | 0.00 | 0.03 | 0.00 | 82 | 1001.6 |
| 20260903205644 | 83 | 106 | 3.0 | 6.0 | 0.00 | 0.03 | 0.00 | 81 | 1002.1 |
| 20260903204633 | 83 | 35 | 4.0 | 8.0 | 0.00 | 0.03 | 0.00 | 82 | 1002.3 |
| 20260903203633 | 83 | 52 | 4.0 | 9.0 | 0.00 | 0.03 | 0.00 | 83 | 1002.8 |
| 20260903202633 | 84 | 25 | 4.0 | 7.0 | 0.00 | 0.03 | 0.00 | 83 | 1003.2 |
| 20260903201633 | 84 | 31 | 4.0 | 8.0 | 0.00 | 0.07 | 0.00 | 84 | 1003.8 |
| 20260903200633 | 84 | 45 | 4.0 | 9.0 | 0.00 | 0.15 | 0.00 | 83 | 1003.4 |
| 20260903195633 | 84 | 78 | 5.0 | 9.0 | 0.00 | 0.15 | 0.00 | 82 | 1003.0 |
| 20260903194633 | 85 | 13 | 5.0 | 9.0 | 0.00 | 0.15 | 0.00 | 81 | 1004.6 |
| 20260903194116 | 85 | 79 | 5.0 | 9.0 | 0.00 | 0.15 | 0.00 | 80 | 1005.2 |
| 20260903192643 | 85 | 345 | 5.0 | 9.0 | 0.00 | 0.15 | 0.00 | 79 | 1006.2 |
| 20260903191629 | 85 | 6 | 5.0 | 9.0 | 0.00 | 0.15 | 0.00 | 80 | 1004.4 |
| 20260903190630 | 85 | 60 | 5.0 | 10.0 | 0.00 | 0.15 | 0.00 | 80 | 1005.8 |
| 20260903185630 | 85 | 78 | 5.0 | 10.0 | 0.00 | 0.15 | 0.00 | 81 | 1005.0 |
| 20260903184630 | 86 | 20 | 5.0 | 10.0 | 0.00 | 0.15 | 0.00 | 78 | 1008.9 |
| 20260903183631 | 85 | 45 | 6.0 | 9.0 | 0.00 | 0.15 | 0.00 | 82 | 1008.9 |
| 20260903182627 | 85 | 36 | 5.0 | 9.0 | 0.00 | 0.15 | 0.00 | 84 | 1010.6 |
| 20260903181627 | 84 | 46 | 4.0 | 8.0 | 0.00 | 0.15 | 0.00 | 84 | 1009.3 |
| 20260903181104 | 84 | 39 | 5.0 | 9.0 | 0.00 | 0.15 | 0.00 | 85 | 1006.4 |
| 20260903180107 | 84 | 34 | 5.0 | 9.0 | 0.00 | 0.15 | 0.00 | 84 | 1007.1 |
| 20260903174627 | 83 | 26 | 4.0 | 8.0 | 0.00 | 0.15 | 0.00 | 85 | 1005.7 |
| 20260903174105 | 83 | 71 | 4.0 | 9.0 | 0.00 | 0.15 | 0.00 | 85 | 1004.9 |
| 20260903172626 | 83 | 59 | 4.0 | 9.0 | 0.00 | 0.15 | 0.00 | 84 | 1004.7 |
| 20260903172110 | 83 | 37 | 5.0 | 11.0 | 0.00 | 0.15 | 0.00 | 84 | 1004.9 |
| 20260903171102 | 83 | 32 | 5.0 | 11.0 | 0.00 | 0.15 | 0.00 | 83 | 1004.8 |
| 20260903165628 | 83 | 36 | 4.0 | 8.0 | 0.00 | 0.15 | 0.00 | 85 | 1004.6 |
| 20260903164625 | 83 | 53 | 5.0 | 9.0 | 0.00 | 0.15 | 0.00 | 85 | 1003.5 |
| 20260903163626 | 83 | 63 | 5.0 | 10.0 | 0.00 | 0.15 | 0.00 | 83 | 1003.8 |
| 20260903162626 | 84 | 51 | 5.0 | 9.0 | 0.00 | 0.15 | 0.00 | 81 | 1004.5 |
| 20260903160626 | 85 | 24 | 5.0 | 9.0 | 0.00 | 0.15 | 0.00 | 82 | 1005.0 |
| 20260903155626 | 85 | 29 | 5.0 | 10.0 | 0.00 | 0.15 | 0.00 | 82 | 1005.4 |
| 20260903154626 | 85 | 34 | 5.0 | 9.0 | 0.00 | 0.15 | 0.00 | 82 | 1005.0 |
| 20260903153625 | 85 | 32 | 5.0 | 10.0 | 0.00 | 0.15 | 0.00 | 81 | 1004.3 |
| 20260903152625 | 85 | 30 | 6.0 | 10.0 | 0.00 | 0.15 | 0.00 | 82 | 1005.4 |
| 20260903151625 | 86 | 23 | 5.0 | 10.0 | 0.00 | 0.15 | 0.00 | 81 | 1007.3 |
| 20260903150625 | 86 | 27 | 5.0 | 10.0 | 0.00 | 0.15 | 0.00 | 80 | 1009.1 |
| 20260903145625 | 87 | 39 | 5.0 | 10.0 | 0.00 | 0.15 | 0.00 | 80 | 1008.1 |
| 20260903144625 | 87 | 6 | 6.0 | 10.0 | 0.00 | 0.15 | 0.00 | 80 | 1010.2 |
| 20260903143625 | 87 | 49 | 5.0 | 9.0 | 0.00 | 0.15 | 0.00 | 80 | 1009.1 |
| 20260903142622 | 86 | 50 | 5.0 | 9.0 | 0.00 | 0.15 | 0.00 | 80 | 1010.2 |
| 20260903141620 | 86 | 29 | 5.0 | 9.0 | 0.00 | 0.15 | 0.00 | 81 | 1010.0 |
| 20260903140618 | 86 | 21 | 5.0 | 10.0 | 0.00 | 0.15 | 0.00 | 82 | 1010.3 |
| 20260903135619 | 85 | 35 | 5.0 | 9.0 | 0.00 | 0.15 | 0.00 | 83 | 1010.1 |
| 20260903134619 | 85 | 18 | 5.0 | 8.0 | 0.00 | 0.15 | 0.00 | 85 | 1009.3 |
| 20260903133620 | 85 | 8 | 5.0 | 9.0 | 0.00 | 0.15 | 0.00 | 86 | 1007.4 |
| 20260903132619 | 84 | 44 | 4.0 | 9.0 | 0.00 | 0.15 | 0.00 | 87 | 1005.7 |
| 20260903131619 | 84 | 30 | 4.0 | 9.0 | 0.00 | 0.15 | 0.00 | 87 | 1005.0 |
| 20260903130619 | 84 | 36 | 4.0 | 7.0 | 0.00 | 0.15 | 0.00 | 88 | 1004.5 |
| 20260903125957 | 84 | 25 | 4.0 | 8.0 | 0.00 | 0.15 | 0.00 | 89 | 1004.2 |
| 20260903124617 | 83 | 7 | 4.0 | 8.0 | 0.00 | 0.15 | 0.00 | 90 | 1003.8 |
| 20260903124052 | 83 | 31 | 4.0 | 6.0 | 0.00 | 0.15 | 0.00 | 92 | 1004.1 |
| 20260903122616 | 82 | 34 | 3.0 | 7.0 | 0.00 | 0.15 | 0.00 | 93 | 1003.3 |
| 20260903121617 | 82 | 37 | 3.0 | 5.0 | 0.00 | 0.15 | 0.00 | 94 | 1003.5 |
| 20260903120618 | 81 | 36 | 3.0 | 4.0 | 0.00 | 0.15 | 0.00 | 94 | 1002.7 |
| 20260903115602 | 81 | 53 | 3.0 | 4.0 | 0.00 | 0.15 | 0.00 | 95 | 1002.4 |
| 20260903115047 | 80 | 26 | 3.0 | 4.0 | 0.00 | 0.15 | 0.00 | 95 | 1001.8 |
| 20260903114050 | 80 | 56 | 3.0 | 4.0 | 0.00 | 0.15 | 0.00 | 95 | 1001.3 |
| 20260903112604 | 80 | 25 | 2.0 | 3.0 | 0.00 | 0.15 | 0.00 | 95 | 1000.8 |
| 20260903111603 | 79 | 15 | 1.0 | 2.0 | 0.00 | 0.15 | 0.00 | 95 | 999.9 |
| 20260903110604 | 79 | 0 | 1.0 | 3.0 | 0.00 | 0.15 | 0.00 | 95 | 999.9 |
| 20260903105604 | 79 | 53 | 2.0 | 3.0 | 0.00 | 0.15 | 0.00 | 96 | 1000.1 |
| 20260903105040 | 79 | 34 | 2.0 | 3.0 | 0.00 | 0.15 | 0.00 | 96 | 999.8 |
| 20260903103548 | 79 | 0 | 1.0 | 2.0 | 0.00 | 0.15 | 0.00 | 96 | 999.4 |
| 20260903102534 | 79 | 41 | 2.0 | 3.0 | 0.00 | 0.15 | 0.00 | 96 | 999.5 |
| 20260903101533 | 79 | 53 | 2.0 | 4.0 | 0.00 | 0.15 | 0.00 | 96 | 999.5 |
| 20260903100533 | 79 | 26 | 3.0 | 4.0 | 0.00 | 0.15 | 0.00 | 96 | 999.7 |
| 20260903095533 | 80 | 35 | 2.0 | 5.0 | 0.00 | 0.15 | 0.00 | 96 | 999.7 |
| 20260903094533 | 80 | 9 | 2.0 | 4.0 | 0.00 | 0.15 | 0.00 | 96 | 999.8 |
| 20260903093533 | 80 | 43 | 2.0 | 3.0 | 0.00 | 0.15 | 0.00 | 96 | 1000.0 |
| 20260903092533 | 80 | 32 | 2.0 | 3.0 | 0.00 | 0.15 | 0.00 | 96 | 1000.0 |
| 20260903091533 | 80 | 18 | 1.0 | 2.0 | 0.00 | 0.15 | 0.00 | 96 | 1000.1 |
| 20260903090533 | 80 | 0 | 1.0 | 2.0 | 0.00 | 0.15 | 0.00 | 96 | 999.7 |
| 20260903085519 | 80 | 82 | 1.0 | 1.0 | 0.00 | 0.15 | 0.00 | 96 | 999.4 |
| 20260903084520 | 80 | 74 | 1.0 | 3.0 | 0.00 | 0.15 | 0.00 | 96 | 999.7 |
| 20260903083533 | 80 | 53 | 2.0 | 3.0 | 0.00 | 0.15 | 0.00 | 96 | 1000.0 |
| 20260903082521 | 80 | 40 | 1.0 | 3.0 | 0.00 | 0.15 | 0.00 | 96 | 999.8 |
| 20260903081507 | 80 | 47 | 1.0 | 2.0 | 0.00 | 0.15 | 0.00 | 96 | 999.6 |
| 20260903080508 | 80 | 44 | 0.0 | 2.0 | 0.00 | 0.15 | 0.00 | 96 | 999.3 |
| 20260903075450 | 80 | 59 | 1.0 | 2.0 | 0.00 | 0.15 | 0.00 | 96 | 999.7 |
| 20260903074451 | 80 | 40 | 1.0 | 3.0 | 0.00 | 0.15 | 0.00 | 96 | 999.8 |
| 20260903073451 | 80 | 0 | 0.0 | 1.0 | 0.00 | 0.15 | 0.00 | 96 | 999.5 |
| 20260903072450 | 80 | 49 | 0.0 | 1.0 | 0.00 | 0.15 | 0.00 | 96 | 999.7 |
| 20260903071451 | 80 | 0 | 0.0 | 0.0 | 0.00 | 0.15 | 0.00 | 96 | 999.8 |
| 20260903070451 | 80 | 0 | 0.0 | 1.0 | 0.00 | 0.15 | 0.00 | 95 | 999.9 |
| 20260903065928 | 80 | 69 | 1.0 | 2.0 | 0.00 | 0.15 | 0.00 | 95 | 1000.1 |
| 20260903064436 | 80 | 85 | 0.0 | 2.0 | 0.00 | 0.15 | 0.00 | 95 | 1000.1 |
| 20260903063436 | 80 | 79 | 1.0 | 2.0 | 0.00 | 0.15 | 0.00 | 95 | 1000.3 |
| 20260903062436 | 81 | 0 | 0.0 | 1.0 | 0.00 | 0.15 | 0.00 | 95 | 1000.3 |
| 20260903061436 | 81 | 0 | 1.0 | 3.0 | 0.00 | 0.15 | 0.00 | 95 | 1000.7 |
| 20260903060436 | 81 | 64 | 2.0 | 3.0 | 0.00 | 0.15 | 0.00 | 95 | 1001.2 |
| 20260903055436 | 81 | 37 | 2.0 | 2.0 | 0.00 | 0.15 | 0.00 | 95 | 1001.1 |
| 20260903054438 | 81 | 34 | 2.0 | 3.0 | 0.00 | 0.15 | 0.00 | 95 | 1001.2 |
| 20260903053901 | 81 | 14 | 2.0 | 3.0 | 0.00 | 0.15 | 0.00 | 95 | 1001.5 |
| 20260903052422 | 81 | 47 | 3.0 | 4.0 | 0.00 | 0.15 | 0.00 | 95 | 1001.7 |
| 20260903051909 | 81 | 48 | 3.0 | 4.0 | 0.00 | 0.15 | 0.00 | 95 | 1001.9 |
| 20260903050422 | 81 | 52 | 3.0 | 5.0 | 0.00 | 0.15 | 0.00 | 95 | 1001.9 |
| 20260903045424 | 81 | 49 | 3.0 | 4.0 | 0.00 | 0.15 | 0.00 | 95 | 1001.8 |
| 20260903044423 | 81 | 29 | 3.0 | 4.0 | 0.00 | 0.15 | 0.00 | 95 | 1001.9 |
| 20260903043410 | 81 | 37 | 3.0 | 4.0 | 0.00 | 0.15 | 0.00 | 95 | 1001.9 |
| 20260903042410 | 81 | 23 | 3.0 | 5.0 | 0.00 | 0.15 | 0.00 | 95 | 1001.9 |
| 20260903041410 | 81 | 31 | 3.0 | 5.0 | 0.00 | 0.15 | 0.00 | 95 | 1001.7 |
| 20260903040411 | 81 | 62 | 4.0 | 6.0 | 0.00 | 0.15 | 0.00 | 95 | 1001.8 |
| 20260903035410 | 81 | 42 | 3.0 | 5.0 | 0.00 | 0.15 | 0.15 | 95 | 1001.8 |
| 20260903034406 | 81 | 10 | 3.0 | 5.0 | 0.00 | 0.15 | 0.15 | 95 | 1001.8 |
| 20260903033407 | 81 | 61 | 2.0 | 5.0 | 0.00 | 0.15 | 0.15 | 95 | 1001.7 |
| 20260903032404 | 81 | 23 | 3.0 | 5.0 | 0.00 | 0.15 | 0.15 | 95 | 1001.8 |
| 20260903031851 | 81 | 37 | 3.0 | 5.0 | 0.00 | 0.15 | 0.15 | 95 | 1001.7 |
| 20260903030418 | 81 | 42 | 3.0 | 5.0 | 0.00 | 0.15 | 0.15 | 95 | 1002.0 |
| 20260903025405 | 81 | 65 | 3.0 | 5.0 | 0.00 | 0.15 | 0.15 | 95 | 1002.0 |
| 20260903024405 | 81 | 54 | 3.0 | 5.0 | 0.00 | 0.15 | 0.15 | 95 | 1002.3 |
| 20260903023405 | 81 | 33 | 3.0 | 5.0 | 0.00 | 0.15 | 0.15 | 95 | 1002.3 |
| 20260903022404 | 82 | 33 | 2.0 | 4.0 | 0.00 | 0.15 | 0.15 | 94 | 1002.4 |
| 20260903021402 | 82 | 39 | 2.0 | 4.0 | 0.00 | 0.15 | 0.15 | 94 | 1002.3 |
| 20260903020414 | 82 | 47 | 3.0 | 5.0 | 0.00 | 0.15 | 0.15 | 94 | 1002.4 |
| 20260903015403 | 81 | 43 | 2.0 | 4.0 | 0.00 | 0.15 | 0.15 | 94 | 1002.1 |
| 20260903014402 | 81 | 61 | 2.0 | 4.0 | 0.00 | 0.15 | 0.15 | 94 | 1001.9 |
| 20260903013402 | 81 | 3 | 3.0 | 5.0 | 0.00 | 0.15 | 0.15 | 94 | 1001.9 |
| 20260903012402 | 81 | 34 | 2.0 | 4.0 | 0.00 | 0.15 | 0.15 | 94 | 1001.9 |
| 20260903011402 | 81 | 21 | 2.0 | 4.0 | 0.00 | 0.15 | 0.15 | 94 | 1001.6 |
| 20260903010401 | 80 | 48 | 2.0 | 5.0 | 0.00 | 0.15 | 0.15 | 94 | 1001.4 |
| 20260903005402 | 80 | 51 | 2.0 | 3.0 | 0.00 | 0.15 | 0.15 | 94 | 1001.3 |
| 20260903004401 | 81 | 102 | 2.0 | 4.0 | 0.00 | 0.15 | 0.15 | 93 | 1001.2 |
| 20260903003401 | 80 | 55 | 2.0 | 5.0 | 0.00 | 0.15 | 0.15 | 93 | 1001.2 |
| 20260903002401 | 80 | 43 | 2.0 | 4.0 | 0.00 | 0.15 | 0.15 | 93 | 1001.1 |
| 20260903001401 | 80 | 15 | 2.0 | 3.0 | 0.00 | 0.15 | 0.15 | 93 | 1000.8 |
| 20260903000839 | 80 | 71 | 2.0 | 5.0 | 0.00 | 0.15 | 0.15 | 93 | 1000.7 |
| 20260902235355 | 80 | 36 | 3.0 | 6.0 | 0.00 | 0.15 | 0.15 | 93 | 1000.7 |
| 20260902234836 | 80 | 38 | 2.0 | 6.0 | 0.00 | 0.15 | 0.15 | 92 | 1000.6 |
| 20260902233355 | 80 | 44 | 2.0 | 4.0 | 0.00 | 0.15 | 0.15 | 92 | 1000.8 |
| 20260902232355 | 80 | 77 | 2.0 | 4.0 | 0.00 | 0.15 | 0.15 | 92 | 1000.9 |
| 20260902225407 | 79 | 39 | 2.0 | 4.0 | 0.03 | 0.15 | 0.15 | 92 | 1001.2 |
| 20260902224355 | 79 | 29 | 3.0 | 7.0 | 0.03 | 0.15 | 0.15 | 92 | 1001.0 |
| 20260902223352 | 78 | 0 | 3.0 | 6.0 | 0.03 | 0.15 | 0.15 | 92 | 1000.9 |
| 20260902222824 | 79 | 45 | 4.0 | 9.0 | 0.03 | 0.15 | 0.15 | 92 | 999.5 |
| 20260902221353 | 81 | 23 | 3.0 | 11.0 | 0.01 | 0.13 | 0.13 | 92 | 1001.0 |
| 20260902215354 | 81 | 58 | 2.0 | 6.0 | 0.00 | 0.13 | 0.13 | 93 | 1002.8 |
| 20260902214354 | 81 | 70 | 2.0 | 4.0 | 0.00 | 0.13 | 0.13 | 93 | 1001.6 |
| 20260902213353 | 81 | 138 | 2.0 | 4.0 | 0.00 | 0.13 | 0.13 | 93 | 1002.0 |
| 20260902212351 | 81 | 45 | 3.0 | 6.0 | 0.00 | 0.13 | 0.13 | 93 | 1003.1 |